Location: Toronto
(43.6672°N, 79.4170°W)
Time: 03:52:26
(UTC-05:00)

ISS - Visible Passes

Search period start: 03 March 2015 00:00
Search period end: 13 March 2015 01:00
Orbit: 397 x 407 km, 51.6° (Epoch: 03 March)

Date Brightness Start Highest point End Pass type
(mag) Time Alt. Az. Time Alt. Az. Time Alt. Az.
09 Mar -0.1 06:30:16 10° SE 06:30:45 10° SE 06:31:22 10° ESE visible
10 Mar -2.1 07:10:28 10° SSW 07:13:33 42° SE 07:16:38 10° ENE visible
11 Mar -1.2 06:17:50 10° S 06:20:25 22° SE 06:23:03 10° E visible
12 Mar -0.5 05:26:54 12° SE 05:27:19 12° SE 05:28:45 10° ESE visible
12 Mar -3.4 07:00:06 10° WSW 07:03:20 88° NW 07:06:34 10° ENE visible
